Keokuk, IA

3:42 PM CST on November 17, 2017 (GMT -0600)
Keokuk Municipal

Weather History for KEOK - January, 2013

Change the Weather History Date:

Saturday, January 12, 2013

  Actual Average Record
Temperature  
Mean Temperature 39 °F -  
Max Temperature 55 °F 31 °F 60 °F (1960)
Min Temperature 23 °F 15 °F -21 °F (1974)
Degree Days  
Heating Degree Days 26    
Moisture  
Dew Point 26 °F    
Average Humidity 67    
Maximum Humidity 80    
Minimum Humidity 50    
Precipitation  
Precipitation 0.00 in - - ()
Sea Level Pressure  
Sea Level Pressure 29.93 in    
Wind  
Wind Speed 12 mph (WNW)    
Max Wind Speed 21 mph    
Max Gust Speed 31 mph    
Visibility 8 miles    
Events Snow    
Averages and records for this station are not official NWS values.
T = Trace of Precipitation, MM = Missing Value Source: NWS Daily Summary

Daily Weather History Graph

Daily Weather History Graph

Search for Another Location

Airport or City:

Trip Planner

Search our weather history database for the weather conditions in past years. The results will help you decide how hot, cold, wet, or windy it might be!

Date:

Astronomy

Jan. 12, 2013 Rise Set
Actual Time 7:27 AM CST 5:00 PM CST
Civil Twilight 6:57 AM CST 5:30 PM CST
Nautical Twilight 6:24 AM CST 6:04 PM CST
Astronomical Twilight 5:51 AM CST 6:37 PM CST
Moon 7:46 AM CST (1/12) 6:30 PM CST (1/12)
Length of Visible Light 10h 33m
Length of Day
9h 32m
New Moon, 1% of the Moon is Illuminated
Jan 12
New Moon
Jan 18
First Quarter
Jan 26
Full
Feb 3
Last Quarter
Feb 10
New

Hourly Weather History & Observations

Time (CST) Temp. Windchill Dew Point Humidity Pressure Visibility Wind Dir Wind Speed Gust Speed Precip Events Conditions
12:15 AM 55.4 °F - 44.6 °F 67% 29.68 in 10.0 mi SSW 17.3 mph 21.9 mph N/A   Clear
12:35 AM 53.6 °F - 44.6 °F 72% 29.68 in 10.0 mi SSW 16.1 mph - N/A   Clear
12:55 AM 53.6 °F - 44.6 °F 72% 29.69 in 10.0 mi SSW 13.8 mph 19.6 mph N/A   Clear
1:15 AM 53.6 °F - 44.6 °F 72% 29.69 in 10.0 mi SSW 11.5 mph - N/A   Clear
1:35 AM 53.6 °F - 44.6 °F 72% 29.70 in 10.0 mi SSW 11.5 mph - N/A   Clear
1:55 AM 53.6 °F - 44.6 °F 72% 29.71 in 10.0 mi South 15.0 mph - N/A   Clear
2:15 AM 53.6 °F - 44.6 °F 72% 29.73 in 10.0 mi SSW 13.8 mph 20.7 mph N/A   Clear
2:35 AM 53.6 °F - 44.6 °F 72% 29.73 in 10.0 mi SSW 13.8 mph - N/A   Clear
2:55 AM 53.6 °F - 42.8 °F 67% 29.74 in 10.0 mi SSW 10.4 mph - N/A   Clear
3:15 AM 51.8 °F - 42.8 °F 71% 29.75 in 10.0 mi SW 9.2 mph - N/A   Clear
3:35 AM 51.8 °F - 42.8 °F 71% 29.76 in 10.0 mi SW 9.2 mph - N/A   Clear
3:55 AM 51.8 °F - 42.8 °F 71% 29.77 in 10.0 mi SW 10.4 mph - N/A   Clear
4:15 AM 51.8 °F - 42.8 °F 71% 29.77 in 10.0 mi WSW 13.8 mph 19.6 mph N/A   Clear
4:35 AM 53.6 °F - 37.4 °F 54% 29.79 in 10.0 mi WSW 17.3 mph - N/A   Clear
4:55 AM 51.8 °F - 33.8 °F 50% 29.81 in 7.0 mi West 20.7 mph 26.5 mph N/A   Clear
5:15 AM 46.4 °F 38.7 °F 35.6 °F 66% 29.83 in 7.0 mi WNW 20.7 mph 31.1 mph N/A   Clear
5:35 AM 44.6 °F 37.4 °F 35.6 °F 71% 29.85 in 7.0 mi West 16.1 mph 23.0 mph N/A   Clear
5:55 AM 42.8 °F 34.0 °F 32.0 °F 66% 29.87 in 10.0 mi West 20.7 mph 28.8 mph N/A   Clear
6:15 AM 39.2 °F 30.8 °F 30.2 °F 70% 29.89 in 10.0 mi WNW 15.0 mph 19.6 mph N/A   Clear
6:35 AM 39.2 °F 30.2 °F 30.2 °F 70% 29.90 in 10.0 mi West 17.3 mph - N/A   Clear
6:55 AM 37.4 °F 28.5 °F 28.4 °F 70% 29.93 in 10.0 mi WNW 15.0 mph 23.0 mph N/A   Clear
7:15 AM 37.4 °F 28.9 °F 24.8 °F 60% 29.94 in 10.0 mi WNW 13.8 mph - N/A   Clear
7:35 AM 35.6 °F 26.2 °F 24.8 °F 65% 29.94 in 10.0 mi West 15.0 mph - N/A   Clear
7:55 AM 33.8 °F 26.4 °F 24.8 °F 70% 29.95 in 10.0 mi WNW 9.2 mph 12.7 mph N/A   Clear
8:15 AM 33.8 °F 25.8 °F 23.0 °F 65% 29.97 in 10.0 mi WNW 10.4 mph - N/A   Clear
8:35 AM 33.8 °F 24.8 °F 23.0 °F 65% 29.99 in 10.0 mi West 12.7 mph 16.1 mph N/A   Clear
8:55 AM 33.8 °F 27.0 °F 23.0 °F 65% 30.00 in 10.0 mi West 8.1 mph - N/A   Clear
9:15 AM 33.8 °F 27.0 °F 21.2 °F 60% 30.01 in 10.0 mi WNW 8.1 mph - N/A   Clear
9:35 AM 33.8 °F 24.3 °F 21.2 °F 60% 30.00 in 10.0 mi NW 13.8 mph - N/A   Clear
9:55 AM 33.8 °F 25.3 °F 21.2 °F 60% 30.01 in 10.0 mi NW 11.5 mph - N/A   Clear
10:15 AM 33.8 °F 27.0 °F 21.2 °F 60% 30.01 in 10.0 mi NW 8.1 mph - N/A   Clear
10:35 AM 35.6 °F 31.7 °F 21.2 °F 56% 30.05 in 10.0 mi WNW 4.6 mph - N/A   Clear
10:55 AM 35.6 °F 31.7 °F 21.2 °F 56% 30.04 in 10.0 mi WNW 4.6 mph - N/A   Clear
11:15 AM 35.6 °F 29.9 °F 21.2 °F 56% 30.03 in 10.0 mi WNW 6.9 mph - N/A   Scattered Clouds
11:55 AM 35.6 °F 28.6 °F 21.2 °F 56% 30.01 in 10.0 mi West 9.2 mph - N/A   Mostly Cloudy
12:15 PM 35.6 °F 29.2 °F 21.2 °F 56% 30.00 in 10.0 mi NW 8.1 mph - N/A   Mostly Cloudy
12:35 PM 33.8 °F 26.4 °F 19.4 °F 56% 29.99 in 10.0 mi WNW 9.2 mph - N/A   Overcast
12:55 PM 33.8 °F 27.0 °F 17.6 °F 52% 29.99 in 10.0 mi NW 8.1 mph - N/A   Overcast
1:35 PM 33.8 °F 26.4 °F 17.6 °F 52% 29.98 in 10.0 mi NW 9.2 mph - N/A   Overcast
1:55 PM 33.8 °F 27.0 °F 17.6 °F 52% 30.01 in 10.0 mi NNW 8.1 mph - N/A   Overcast
2:15 PM 32.0 °F 27.5 °F 19.4 °F 60% 30.02 in 10.0 mi NW 4.6 mph - N/A   Overcast
2:35 PM 32.0 °F 26.4 °F 21.2 °F 64% 30.03 in 10.0 mi NNW 5.8 mph - N/A   Mostly Cloudy
2:55 PM 32.0 °F 26.4 °F 21.2 °F 64% 30.03 in 10.0 mi NW 5.8 mph - N/A   Overcast
3:15 PM 32.0 °F 24.8 °F 21.2 °F 64% 30.02 in 10.0 mi North 8.1 mph - N/A   Overcast
3:35 PM 30.2 °F 23.4 °F 19.4 °F 64% 30.02 in 10.0 mi North 6.9 mph - N/A   Overcast
3:55 PM 30.2 °F 23.4 °F 19.4 °F 64% 30.01 in 10.0 mi North 6.9 mph - N/A   Overcast
4:15 PM 30.2 °F 22.6 °F 19.4 °F 64% 29.97 in 10.0 mi North 8.1 mph - N/A   Overcast
4:35 PM 30.2 °F 22.6 °F 19.4 °F 64% 29.98 in 10.0 mi North 8.1 mph - N/A   Overcast
4:55 PM 30.2 °F 21.9 °F 17.6 °F 60% 29.97 in 10.0 mi North 9.2 mph - N/A   Overcast
5:15 PM 30.2 °F 21.3 °F 17.6 °F 60% 29.96 in 10.0 mi NNW 10.4 mph - N/A   Overcast
5:35 PM 30.2 °F 21.9 °F 19.4 °F 64% 29.99 in 10.0 mi NNW 9.2 mph - N/A   Overcast
5:55 PM 30.2 °F 25.4 °F 19.4 °F 64% 30.01 in 10.0 mi NNW 4.6 mph - N/A   Overcast
6:15 PM 30.2 °F 21.9 °F 19.4 °F 64% 30.04 in 10.0 mi NNW 9.2 mph - N/A   Overcast
6:35 PM 28.4 °F 19.1 °F 19.4 °F 69% 30.04 in 3.0 mi NNW 10.4 mph 16.1 mph N/A Snow Light Snow
7:15 PM 28.4 °F 19.7 °F 19.4 °F 69% 30.03 in 4.0 mi NNW 9.2 mph - N/A Snow Light Snow
7:35 PM 28.4 °F 19.1 °F 21.2 °F 74% 30.01 in 2.0 mi NNW 10.4 mph 17.3 mph N/A Snow Light Snow
7:55 PM 26.6 °F 15.7 °F 21.2 °F 80% 29.98 in 2.5 mi North 12.7 mph - N/A Snow Light Snow
8:15 PM 26.6 °F 16.2 °F 21.2 °F 80% 29.95 in 3.0 mi North 11.5 mph - N/A Snow Light Snow
8:35 PM 26.6 °F 15.2 °F 21.2 °F 80% 29.94 in 3.0 mi North 13.8 mph - N/A Snow Light Snow
8:55 PM 26.6 °F 16.8 °F 21.2 °F 80% 29.97 in 5.0 mi NNW 10.4 mph 19.6 mph N/A Snow Light Snow
9:15 PM 26.6 °F 18.2 °F 21.2 °F 80% 30.01 in 5.0 mi NNW 8.1 mph 17.3 mph N/A Snow Light Snow
9:35 PM 26.6 °F 15.7 °F 19.4 °F 74% 30.00 in 2.0 mi NW 12.7 mph 17.3 mph N/A Snow Light Snow
9:55 PM 24.8 °F 15.3 °F 19.4 °F 80% 30.00 in 2.0 mi NNW 9.2 mph 18.4 mph N/A Snow Light Snow
10:15 PM 24.8 °F 14.6 °F 19.4 °F 80% 30.01 in 2.0 mi NNW 10.4 mph - N/A Snow Light Snow
10:35 PM 24.8 °F 14.0 °F 17.6 °F 74% 30.00 in 1.2 mi NNW 11.5 mph 18.4 mph N/A Snow Light Snow
10:55 PM 24.8 °F 14.6 °F 17.6 °F 74% 30.00 in 5.0 mi NNW 10.4 mph 16.1 mph N/A Snow Light Snow
11:15 PM 24.8 °F 16.1 °F 17.6 °F 74% 30.00 in 1.8 mi NNW 8.1 mph - N/A Snow Light Snow
11:35 PM 23.0 °F 11.7 °F 17.6 °F 80% 29.97 in 7.0 mi NNW 11.5 mph - N/A Snow Light Snow
11:55 PM 23.0 °F 12.4 °F 17.6 °F 80% 29.96 in 5.0 mi NNW 10.4 mph 16.1 mph N/A Snow Light Snow